Regional Weather Roundup
Issued by NWS

Home | Current Version | Previous Version | Graphics & Text | Print | Product List | Glossary On
Versions: 1 2 3 4 5 6 7 8 9 10 11 12 13 14 15 16 17 18 19 20 21 22 23 24 25 26 27 28 29 30 31 32 33 34 35 36 37 38 39 40 41 42 43 44 45 46 47 48 49 50
000
ASUS45 KPSR 031010
RWRAZ

ARIZONA HOURLY REGIONAL WEATHER ROUNDUP
NATIONAL WEATHER SERVICE PHOENIX AZ
300 AM MST MON AUG 03 2015

NOTE: FAIR INDICATES FEW OR NO CLOUDS BELOW 12,000 FEET WITH NO
SIGNIFICANT WEATHER AND/OR OBSTRUCTIONS TO VISIBILITY.

AZZ001>003-036-031100-
NORTHWEST ARIZONA

CITY           SKY/WX    TMP DP  RH WIND       PRES   REMARKS
BULLHEAD CITY  CLEAR     91  45  19 E8        29.72S
KINGMAN        CLEAR     74  43  32 SE6       29.95S
$$

AZZ004>008-015-016-018-031100-
NORTH CENTRAL ARIZONA

CITY           SKY/WX    TMP DP  RH WIND       PRES   REMARKS
GRAND CANYON   CLEAR     47  46  97 CALM      30.22S
WILLIAMS       CLEAR     54  50  87 S10       30.29S
PRESCOTT       CLEAR     67  48  50 S6        30.10S
FLAGSTAFF      CLEAR     49  48  97 CALM      30.26S
PAYSON         CLEAR     64  52  63 CALM      30.12F
PAGE           CLEAR     69  61  75 CALM      30.05R
$$

AZZ009>014-017-031100-
NORTHEAST ARIZONA

CITY           SKY/WX    TMP DP  RH WIND       PRES   REMARKS
WINSLOW        NOT AVBL
SAINT JOHNS    CLEAR     59  54  83 CALM      30.16F
SHOW LOW       PTCLDY    55  48  76 SE3       30.22S
$$

AZZ023-031100-
GREATER PHOENIX AREA

CITY           SKY/WX    TMP DP  RH WIND       PRES   REMARKS
PHOENIX        CLEAR     92  57  30 E5        29.76R
DEER VALLEY    CLEAR     89  52  28 W3        29.79R
SCOTTSDALE     CLEAR     90  51  26 CALM      29.81S
MESA-GATEWAY   CLEAR     82  54  36 E5        29.82R
$$

AZZ027-028-031100-
SOUTHWEST MARICOPA COUNTY AND PINAL COUNTY

CITY           SKY/WX    TMP DP  RH WIND       PRES   REMARKS
CASA GRANDE    CLEAR     86  55  35 CALM      29.80S
GILA BEND      FAIR      88  52  29 S8        29.75F
$$

AZZ503-504-507>509-031100-
SOUTHEAST ARIZONA

CITY           SKY/WX    TMP DP  RH WIND       PRES   REMARKS
TUCSON         CLEAR     82  59  45 S8        29.93S
DAVIS-MONTHAN  CLEAR     81  58  45 S7        29.91F
NOGALES        CLEAR     72  59  63 CALM      30.03F
SIERRA VISTA   CLEAR     74  56  53 VRB1      30.08F
DOUGLAS          N/A    N/A N/A N/A MISG      30.04F
SAFFORD        CLEAR     76  56  49 CALM      29.94F
$$

AZZ020-021-025-026-031-031100-
SOUTHWEST ARIZONA

CITY           SKY/WX    TMP DP  RH WIND       PRES   REMARKS
YUMA           CLEAR     89  55  31 CALM      29.71S
$$

CAZ031-033-041-043-047-048-061-031100-
SOUTHERN CALIFORNIA

CITY           SKY/WX    TMP DP  RH WIND       PRES   REMARKS
DOWNTOWN L.A.  CLEAR     68  62  81 CALM      29.86S
L.A. AIRPORT   CLEAR     68  63  84 CALM      29.87S
SAN DIEGO      CLOUDY    69  62  78 W5        29.89R
BURBANK        CLEAR     69  62  78 CALM      29.88S
ONTARIO        PTCLDY    67  61  81 W5        29.88S
RIVERSIDE      CLEAR     69  63  81 CALM      29.88S
PALM SPRINGS   CLEAR     84  59  42 SE6       29.74S
EL CENTRO NAS  CLEAR     86  38  18 NW7       29.69F
IMPERIAL       CLEAR     88  41  19 NE5       29.68R
BLYTHE         CLEAR     91  50  24 S6        29.71S
NEEDLES        CLEAR     92  48  22 CALM      29.74R
$$

NVZ020-UTZ003-031100-
SOUTHERN NEVADA-UTAH

CITY           SKY/WX    TMP DP  RH WIND       PRES   REMARKS
LAS VEGAS      CLEAR     87  39  18 S6        29.78S
SALT LAKE CITY LGT RAIN  67  58  72 S10       30.04R
$$

NMZ009-TXZ055-031100-
NEW MEXICO-WEST TEXAS

CITY           SKY/WX    TMP DP  RH WIND       PRES   REMARKS
ALBUQUERQUE    PTCLDY    65  60  84 W13       30.14R
EL PASO        MOCLDY    73  63  70 SW3       30.00S
$$


........................KEY........................
SKY/WX - SKY CONDITION/WEATHER
TMP    - TEMPERATURE IN FAHRENHEIT
DP     - DEW POINT IN FAHRENHEIT
RH     - RELATIVE HUMIDITY IN PERCENT
WIND   - DIRECTION AND SPEED IN MILES PER HOUR (MPH)
VRB    - VARIABLE WIND DIRECTION
PRES   - MEAN SEA LEVEL PRESSURE IN INCHES OF MERCURY
         F - FALLING PRESSURE   R - RISING PRESSURE
         S - STEADY PRESSURE
VSB    - VISIBILITY IN MILES
HX     - HEAT INDEX IN FAHRENHEIT
WCI    - WIND CHILL INDEX IN FAHRENHEIT
TC     - TEMPERATURE IN CELSIUS WHICH IS ALSO KNOWN AS
         TEMPERATURE IN CENTIGRADE
AFB    - AIR FORCE BASE
         LUKE AFB IS LUKE AIR FORCE BASE
         DAVIS-MONTHAN IS DAVIS-MONTHAN AIR FORCE BASE
NAS    - NAVAL AIR STATION
         EL CENTRO NAS IS EL CENTRO NAVAL AIR STATION
N/A    - NOT AVAILABLE



USA.gov is the U.S. government's official web portal to all federal, state and local government web resources and services.